"Pseudo-MPEC" for JKt010

Created 2024 Dec 8 4:31:10 UT using Find_Orb

Click here for an explanation of pseudo-MPECs

 
 Astrometry: 
     JKt010 *1C2024 11 29.03499920 58 07.224-19 45 20.74   ~BT7l 22.4 rVNEOCPW84
     JKt010  1C2024 11 29.04353220 58 08.590-19 45 16.27   ~BT7l 22.1 rVNEOCPW84
     JKt010  1C2024 11 29.06084120 58 11.412-19 45 07.52   ~BT7l 22.4 rVNEOCPW84

Station data:
(W84) Cerro Tololo-DECam  (S30.169594 W70.806420)  Chile.  Observer D.
   Trilling. Measurer S. Deen. 4.0-m reflector + CCD.

Orbital elements:  JKt010
   Perihelion 2025 Feb 15.95169 +/- 71 TT = 22:50:25 (JD 2460722.45169)
Epoch 2024 Nov 29.0 TT = JDT 2460643.5   Earth MOID: 0.0088   Ve: 0.0385
M 225.57970209 +/- 100              Me: 0.0426                   AutoNEOCP
n   1.70256395 +/- 1.13             Peri.    7.60200 +/- 70
a   0.69459836 +/- 0.308            Node   169.78504 +/- 36
e   0.4918955 +/- 0.245             Incl.    4.89419 +/- 70
P   0.579/211.442d         H 20.53  G  0.15   U 12.8  SR
q 0.35292849 +/- 0.471    Q 1.03626824 +/- 13.6           (J2000 ecliptic)
From 3 observations 2024 Nov. 29 (37.2 min); mean residual 0".08
Residuals in arcseconds: 
241129 W84  .09+  .05-    241129 W84  .14-  .07+    241129 W84  .05+  .02-    

Ephemerides (geocentric):
Date (UTC) HH   RA             Dec           delta  r     elong  mag " sig PA
---- --------  ------------   ------------  ------ ------ -----  --- --------
2024 12 08 05  21 22 21.414   -18 25 54.67  .87149 .94736  61.0 22.4 5935 104
2024 12 08 06  21 22 27.782   -18 25 32.09  .87154 .94715  61.0 22.4 5977 104
2024 12 08 07  21 22 34.147   -18 25 09.50  .87159 .94694  61.0 22.4 6018 104
2024 12 08 08  21 22 40.511   -18 24 46.90  .87163 .94673  61.0 22.4 6060 104
2024 12 08 09  21 22 46.872   -18 24 24.30  .87168 .94652  60.9 22.4 6102 104
2024 12 08 10  21 22 53.232   -18 24 01.69  .87173 .94631  60.9 22.4 6144 104
2024 12 08 11  21 22 59.589   -18 23 39.08  .87178 .94610  60.9 22.4 6186 104
2024 12 08 12  21 23 05.944   -18 23 16.46  .87183 .94589  60.9 22.4 6228 104
2024 12 08 13  21 23 12.297   -18 22 53.83  .87187 .94568  60.9 22.4 6270 104
2024 12 08 14  21 23 18.647   -18 22 31.20  .87192 .94547  60.9 22.4 6313 104
2024 12 08 15  21 23 24.996   -18 22 08.55  .87196 .94526  60.8 22.4 6356 104
2024 12 08 16  21 23 31.343   -18 21 45.91  .87201 .94505  60.8 22.4 6398 104
2024 12 08 17  21 23 37.687   -18 21 23.25  .87206 .94484  60.8 22.4 6441 104
2024 12 08 18  21 23 44.029   -18 21 00.59  .87210 .94463  60.8 22.4 6484 104
2024 12 08 19  21 23 50.369   -18 20 37.92  .87215 .94441  60.8 22.4 6528 104
2024 12 08 20  21 23 56.707   -18 20 15.25  .87219 .94420  60.8 22.4 6571 104
2024 12 08 21  21 24 03.043   -18 19 52.57  .87224 .94399  60.7 22.4 6614 104
2024 12 08 22  21 24 09.377   -18 19 29.88  .87228 .94378  60.7 22.4 6658 104
2024 12 08 23  21 24 15.709   -18 19 07.19  .87232 .94356  60.7 22.4 6702 104
2024 12 09 00  21 24 22.038   -18 18 44.49  .87237 .94335  60.7 22.4 6746 104
2024 12 09 01  21 24 28.365   -18 18 21.78  .87241 .94314  60.7 22.4 6790 104
2024 12 09 02  21 24 34.691   -18 17 59.07  .87245 .94292  60.7 22.4 6834 104
2024 12 09 03  21 24 41.014   -18 17 36.35  .87249 .94271  60.6 22.4 6879 104
2024 12 09 04  21 24 47.335   -18 17 13.63  .87254 .94249  60.6 22.4 6923 104
2024 12 09 05  21 24 53.654   -18 16 50.90  .87258 .94228  60.6 22.4 6968 104
2024 12 09 06  21 24 59.970   -18 16 28.16  .87262 .94206  60.6 22.4 7013 104
2024 12 09 07  21 25 06.285   -18 16 05.42  .87266 .94185  60.6 22.4 7058 104
2024 12 09 08  21 25 12.597   -18 15 42.67  .87270 .94163  60.6 22.4 7103 104
2024 12 09 09  21 25 18.908   -18 15 19.91  .87274 .94142  60.5 22.4 7148 104
2024 12 09 10  21 25 25.216   -18 14 57.15  .87278 .94120  60.5 22.4 7194 104
2024 12 09 11  21 25 31.522   -18 14 34.38  .87282 .94098  60.5 22.4 7239 104
2024 12 09 12  21 25 37.826   -18 14 11.60  .87286 .94077  60.5 22.4 7285 104
2024 12 09 13  21 25 44.127   -18 13 48.82  .87290 .94055  60.5 22.4 7331 104
2024 12 09 14  21 25 50.427   -18 13 26.04  .87294 .94033  60.5 22.4 7377 104
2024 12 09 15  21 25 56.724   -18 13 03.24  .87298 .94012  60.4 22.4 7423 104
2024 12 09 16  21 26 03.020   -18 12 40.44  .87302 .93990  60.4 22.4 7470 104
2024 12 09 17  21 26 09.313   -18 12 17.64  .87305 .93968  60.4 22.4 7516 104
2024 12 09 18  21 26 15.604   -18 11 54.83  .87309 .93946  60.4 22.4 7563 104
2024 12 09 19  21 26 21.893   -18 11 32.01  .87313 .93925  60.4 22.4 7610 104
2024 12 09 20  21 26 28.180   -18 11 09.19  .87317 .93903  60.4 22.4 7657 104
2024 12 09 21  21 26 34.464   -18 10 46.36  .87320 .93881  60.3 22.4 7704 104
2024 12 09 22  21 26 40.747   -18 10 23.52  .87324 .93859  60.3 22.4 7752 104
2024 12 09 23  21 26 47.027   -18 10 00.68  .87327 .93837  60.3 22.4 7799 104
2024 12 10 00  21 26 53.305   -18 09 37.84  .87331 .93815  60.3 22.4 7847 104
2024 12 10 01  21 26 59.581   -18 09 14.99  .87334 .93793  60.3 22.4 7895 104
2024 12 10 02  21 27 05.855   -18 08 52.13  .87338 .93771  60.3 22.4 7943 104
2024 12 10 03  21 27 12.127   -18 08 29.26  .87341 .93749  60.2 22.4 7992 104
2024 12 10 04  21 27 18.396   -18 08 06.39  .87345 .93727  60.2 22.4 8040 104